Hourly Data Report for September 21, 2018

SHEARWATER RCS
NOVA SCOTIA
Current Station Operator: ECCC - MSC

44°37'47.000" N
63°30'48.000" W
24.00 m
8205092
71264
AAW

Download Data

Hourly Data (September 2018)
Hourly Data Report for September 21, 2018
TIME Temp Definition
°C
Dew Point Definition
°C
Rel Hum Definition
%
Wind Dir Definition
10's deg

Wind Spd Definition
km/h
Visibility Definition
km
Stn Press Definition
kPa
Hmdx Definition


Wind Chill Definition


Weather Definition


00:00 10.0 7.6 85 36 9   102.34     LegendNANA
01:00 9.5 7.5 88 35 11   102.34     LegendNANA
02:00 8.7 7.3 91 33 8   102.39     LegendNANA
03:00 8.4 7.3 93 34 4   102.35     LegendNANA
04:00 8.8 6.9 88 36 11   102.39     LegendNANA
05:00 8.8 7.0 88 36 8   102.42     LegendNANA
06:00 8.9 7.4 90 35 13   102.43     LegendNANA
07:00 9.8 7.7 87 3 5   102.46     LegendNANA
08:00 12.1 7.8 75 3 7   102.49     LegendNANA
09:00 13.4 6.6 64 4 9   102.50     LegendNANA
10:00 14.7 5.9 56 9 10   102.47     LegendNANA
11:00 15.5 7.0 57 18 13   102.50     LegendNANA
12:00 15.5 5.6 52 16 15   102.41     LegendNANA
13:00 15.9 7.4 57 14 13   102.41     LegendNANA
14:00 14.8 7.2 60 14 16   102.29     LegendNANA
15:00 15.3 7.5 60 16 16   102.23     LegendNANA
16:00 14.9 7.4 61 15 17   102.13     LegendNANA
17:00 15.1 8.0 62 16 21   102.07     LegendNANA
18:00 15.1 8.5 65 17 21   101.97     LegendNANA
19:00 15.3 9.6 69 17 26   101.81     LegendNANA
20:00 15.9 10.6 71 18 26   101.78     LegendNANA
21:00 16.5 11.4 72 18 28   101.63     LegendNANA
22:00 17.0 11.0 68 19 27   101.56     LegendNANA
23:00 17.2 11.6 69 20 31   101.47     LegendNANA

Notes on Data Quality.

Legend

  • E = Estimated
  • M = Missing
  • NA = Not Available*
  • [empty] = Indicates an unobserved value
Date modified: